Home   Weather   Port Macquarie   Past weeks
Flag for Australia

Past Weather in Port Macquarie, New South Wales, Australia — Yesterday and Last 2 Weeks

Now
49 °F

Passing clouds.


Feels Like: 45 °F
Forecast: 64 / 47 °F
Wind: 12 mph from West

Location: Port Macquarie Airport

Current Time: Jun 20, 2019 at 5:05:04 am

Latest Report: Jun 20, 2019 at 3:00 am


Visibility: N/A

Pressure: 30.19 "Hg

Humidity: 68%

Dew Point: 39 °F

Location of Port MacquarieLocation

Past Weather in Port Macquarie — Graph

°F

Port Macquarie Temperature Yesterday

Maximum temperature yesterday: 66 °F (at 2:00 pm)
Minimum temperature yesterday: 48 °F (at 11:00 pm)
Average temperature yesterday: 56 °F

High & Low Weather Summary for the Past Weeks

 TemperatureHumidityPressure
High76 °F (Jun 11, 12:00 pm)98% (Jun 8, 11:00 pm)30.55 "Hg (Jun 8, 11:00 pm)
Low45 °F (Jun 15, 12:00 am)34% (Jun 19, 2:00 pm)29.94 "Hg (Jun 13, 2:00 pm)
Average58 °F79%30.18 "Hg
* Reported Jun 5 3:00 am — Jun 20 3:00 am, Port Macquarie. Weather by CustomWeather, © 2019

Note: Actual official high and low records may vary slightly from our data, if they occured in-between our weather recording intervals... More about our weather records

Advertising

Port Macquarie Weather History for the Previous 24 Hours

Scroll right to see more
 ConditionsComfort  
Time TempWeatherWind HumidityBarometerVisibility
3:00 am
Thu, Jun 20
49 °FPassing clouds.12 mph68%30.19 "HgN/A
2:00 am49 °FCool.10 mph68%30.19 "HgN/A
12:00 am48 °FCool.5 mph75%30.19 "HgN/A
11:00 pm
Wed, Jun 19
48 °FCool.6 mph76%30.19 "HgN/A
9:00 pm51 °FCool.6 mph66%30.19 "HgN/A
8:00 pm49 °FCool.6 mph71%30.19 "HgN/A
6:00 pm53 °FCool.7 mph58%30.16 "HgN/A
5:00 pm57 °FRefreshingly cool.8 mph50%30.14 "HgN/A
3:00 pm65 °FMild.10 mph36%30.10 "HgN/A
2:00 pm66 °FMild.12 mph34%30.09 "HgN/A
12:00 pm65 °FMild.14 mph37%30.10 "HgN/A
11:00 am63 °FMild.16 mph40%30.13 "HgN/A
9:00 am58 °FCool.9 mph62%30.14 "HgN/A
8:00 am52 °FCool.1 mph96%30.12 "HgN/A
6:00 am50 °FCool.5 mph95%30.09 "HgN/A
5:00 am52 °FCool.6 mph95%30.06 "HgN/A
Weather by CustomWeather, © 2019

See weather overview